Regional Weather Roundup
Issued by NWS

Home | Current Version | Previous Version | Graphics & Text | Print | Product List | Glossary On
Versions: 1 2 3 4 5 6 7 8 9 10 11 12 13 14 15 16 17 18 19 20 21 22 23 24 25 26 27 28 29 30 31 32 33 34 35 36 37 38 39 40 41 42 43 44 45 46 47 48 49 50
000
ASUS43 KLMK 212102
RWRKY
KENTUCKY REGIONAL WEATHER ROUNDUP
NATIONAL WEATHER SERVICE LOUISVILLE KY
500 PM EDT THU AUG 21 2014

NOTE "FAIR" INDICATES FEW OR NO CLOUDS BELOW 12,000 FEET
WITH NO SIGNIFICANT WEATHER AND/OR OBSTRUCTIONS TO VISIBILITY.

KYZ001>023-026-027-061>063-070>075-212200-
WESTERN AND SOUTH CENTRAL KENTUCKY

CITY           SKY/WX    TMP DP  RH WIND       PRES   REMARKS
PADUCAH        MOSUNNY   93  73  52 SW8G18    30.00F HX 102
HENDERSON      SUNNY     93  72  49 SW10      29.99S HX 100
OWENSBORO      SUNNY     92  74  55 SW8       30.00F HX 101
HOPKINSVILLE   NOT AVBL
BOWLING GREEN  PTSUNNY   93  70  46 VRB5      30.04F HX  99
GLASGOW        SUNNY     90  71  52 CALM      30.05F HX  96
$$

KYZ024-025-028>034-038-045-046-053-212200-
NORTH CENTRAL KENTUCKY

CITY           SKY/WX    TMP DP  RH WIND       PRES   REMARKS
LOUISVILLE/SDF PTSUNNY   89  74  60 S9        30.02F HX  98
LOUISVILLE/LOU MOSUNNY   88  73  61 SW9       30.02F HX  95
FORT KNOX      MOSUNNY   89  74  59 SW7       30.03F HX  98
$$

KYZ035>037-039>044-047>052-055>060-089>105-212200-
NORTHEAST KENTUCKY

CITY           SKY/WX    TMP DP  RH WIND       PRES   REMARKS
LEXINGTON      PTSUNNY   86  74  67 SW5       30.06F HX  94
COVINGTON      PTSUNNY   81  73  76 S6        30.03F
FRANKFORT      MOSUNNY   85  74  69 W6        30.04F HX  92
$$

KYZ054-064>069-076>088-106>120-212200-
SOUTHEAST KENTUCKY

CITY           SKY/WX    TMP DP  RH WIND       PRES   REMARKS
JACKSON        LGT RAIN  70  68  93 NW3       30.13S
LONDON         MOSUNNY   87  70  56 W10       30.10F HX  92
SOMERSET       PTSUNNY   86  70  58 W8        30.10S HX  90
MIDDLESBORO    MOSUNNY   87  74  65 S7        30.10F HX  95
MONTICELLO     CLEAR     89  73  59 SW8       30.11F HX  96
$$



USA.gov is the U.S. government's official web portal to all federal, state and local government web resources and services.